| time (UTC) | temp F | wind direction | speed MPH | gust MPH | rain 1hr in | rain 24hr in | rain mn in | humidity % | barometer mb |
| 20260503003106 | 82 | 228 | 1.0 | 3.0 | 0.00 | 0.00 | 0.00 | 78 | 1012.6 |
| 20260503001627 | 82 | 255 | 0.0 | 2.0 | 0.00 | 0.00 | 0.00 | 77 | 1012.5 |
| 20260503000110 | 82 | 0 | 1.0 | 3.0 | 0.00 | 0.00 | 0.00 | 77 | 1012.3 |
| 20260502234554 | 83 | 0 | 0.0 | 4.0 | 0.00 | 0.00 | 0.00 | 77 | 1012.1 |
| 20260502233053 | 83 | 0 | 1.0 | 4.0 | 0.00 | 0.00 | 0.00 | 75 | 1012.0 |
| 20260502231553 | 83 | 246 | 1.0 | 7.0 | 0.00 | 0.00 | 0.00 | 75 | 1011.7 |
| 20260502230050 | 84 | 236 | 3.0 | 5.0 | 0.00 | 0.00 | 0.00 | 74 | 1011.4 |
| 20260502224555 | 85 | 0 | 1.0 | 4.0 | 0.00 | 0.00 | 0.00 | 72 | 1011.4 |
| 20260502223051 | 84 | 0 | 0.0 | 5.0 | 0.00 | 0.00 | 0.00 | 73 | 1011.3 |
| 20260502221552 | 84 | 227 | 1.0 | 6.0 | 0.00 | 0.00 | 0.00 | 73 | 1011.3 |
| 20260502220055 | 83 | 0 | 0.0 | 5.0 | 0.00 | 0.00 | 0.00 | 75 | 1011.3 |
| 20260502214553 | 83 | 232 | 2.0 | 7.0 | 0.00 | 0.00 | 0.00 | 75 | 1011.3 |
| 20260502213106 | 83 | 259 | 3.0 | 8.0 | 0.00 | 0.00 | 0.00 | 76 | 1011.2 |
| 20260502211554 | 83 | 279 | 4.0 | 10.0 | 0.00 | 0.00 | 0.00 | 76 | 1011.0 |
| 20260502210053 | 84 | 235 | 5.0 | 10.0 | 0.00 | 0.00 | 0.00 | 75 | 1010.9 |
| 20260502204555 | 85 | 238 | 1.0 | 8.0 | 0.00 | 0.00 | 0.00 | 73 | 1011.1 |
| 20260502203104 | 85 | 247 | 1.0 | 9.0 | 0.00 | 0.00 | 0.00 | 73 | 1011.4 |
| 20260502201602 | 85 | 292 | 3.0 | 9.0 | 0.00 | 0.00 | 0.00 | 70 | 1011.5 |
| 20260502200137 | 84 | 250 | 4.0 | 10.0 | 0.00 | 0.00 | 0.00 | 71 | 1011.7 |
| 20260502194607 | 84 | 296 | 5.0 | 10.0 | 0.00 | 0.00 | 0.00 | 72 | 1011.8 |
| 20260502193056 | 85 | 288 | 2.0 | 12.0 | 0.00 | 0.00 | 0.00 | 72 | 1011.9 |
| 20260502191607 | 84 | 233 | 3.0 | 11.0 | 0.00 | 0.00 | 0.00 | 75 | 1012.1 |
| 20260502190057 | 84 | 233 | 3.0 | 11.0 | 0.00 | 0.00 | 0.00 | 74 | 1012.3 |
| 20260502184553 | 84 | 260 | 4.0 | 11.0 | 0.00 | 0.00 | 0.00 | 75 | 1012.3 |
| 20260502183059 | 84 | 243 | 3.0 | 9.0 | 0.00 | 0.00 | 0.00 | 76 | 1012.3 |
| 20260502181554 | 84 | 308 | 4.0 | 14.0 | 0.00 | 0.00 | 0.00 | 77 | 1012.2 |
| 20260502163055 | 84 | 254 | 4.0 | 15.0 | 0.00 | 0.00 | 0.00 | 76 | 1012.5 |
| 20260502161551 | 84 | 259 | 6.0 | 14.0 | 0.00 | 0.00 | 0.00 | 76 | 1012.6 |
| 20260502160105 | 84 | 271 | 4.0 | 12.0 | 0.00 | 0.00 | 0.00 | 76 | 1012.6 |
| 20260502151611 | 83 | 256 | 5.0 | 17.0 | 0.00 | 0.00 | 0.00 | 77 | 1012.6 |
| 20260502150127 | 83 | 247 | 6.0 | 15.0 | 0.00 | 0.00 | 0.00 | 77 | 1012.7 |
| 20260502130104 | 82 | 253 | 6.0 | 13.0 | 0.00 | 0.00 | 0.00 | 76 | 1012.1 |
| 20260502123052 | 81 | 242 | 6.0 | 15.0 | 0.00 | 0.00 | 0.00 | 79 | 1011.8 |
| 20260502121604 | 81 | 229 | 5.0 | 14.0 | 0.00 | 0.00 | 0.00 | 80 | 1011.9 |
| 20260502120112 | 80 | 251 | 8.0 | 17.0 | 0.00 | 0.00 | 0.00 | 83 | 1011.7 |
| 20260502114558 | 80 | 246 | 6.0 | 16.0 | 0.00 | 0.00 | 0.00 | 84 | 1011.8 |
| 20260502113111 | 80 | 240 | 8.0 | 17.0 | 0.00 | 0.00 | 0.00 | 84 | 1011.8 |
| 20260502111605 | 80 | 257 | 6.0 | 14.0 | 0.00 | 0.00 | 0.00 | 83 | 1011.7 |
| 20260502110105 | 80 | 244 | 7.0 | 14.0 | 0.00 | 0.00 | 0.00 | 82 | 1011.8 |
| 20260502104555 | 80 | 241 | 5.0 | 11.0 | 0.00 | 0.00 | 0.00 | 82 | 1011.5 |
| 20260502103114 | 80 | 221 | 5.0 | 12.0 | 0.00 | 0.00 | 0.00 | 82 | 1011.3 |
| 20260502101607 | 80 | 235 | 5.0 | 12.0 | 0.00 | 0.00 | 0.00 | 82 | 1011.3 |
| 20260502070101 | 80 | 238 | 6.0 | 11.0 | 0.00 | 0.00 | 0.00 | 83 | 1011.6 |
| 20260502064557 | 80 | 253 | 6.0 | 11.0 | 0.00 | 0.00 | 0.00 | 83 | 1011.5 |
| 20260502063115 | 80 | 250 | 6.0 | 12.0 | 0.00 | 0.00 | 0.00 | 83 | 1011.5 |
| 20260502061559 | 80 | 257 | 6.0 | 13.0 | 0.00 | 0.00 | 0.00 | 83 | 1011.4 |
| 20260502060106 | 80 | 221 | 7.0 | 15.0 | 0.00 | 0.00 | 0.00 | 84 | 1011.5 |
| 20260502054613 | 80 | 244 | 5.0 | 11.0 | 0.00 | 0.00 | 0.00 | 84 | 1011.6 |
| 20260502053101 | 80 | 222 | 6.0 | 12.0 | 0.00 | 0.00 | 0.00 | 84 | 1011.9 |
| 20260502051556 | 80 | 246 | 5.0 | 11.0 | 0.00 | 0.00 | 0.00 | 83 | 1012.1 |
| 20260502050058 | 80 | 224 | 4.0 | 10.0 | 0.00 | 0.00 | 0.00 | 83 | 1012.1 |
| 20260502044558 | 80 | 237 | 4.0 | 10.0 | 0.00 | 0.00 | 0.00 | 83 | 1012.2 |
| 20260502043109 | 80 | 232 | 4.0 | 9.0 | 0.00 | 0.00 | 0.00 | 82 | 1012.3 |
| 20260502041605 | 80 | 234 | 4.0 | 8.0 | 0.00 | 0.00 | 0.00 | 83 | 1012.4 |
| 20260502040104 | 80 | 240 | 3.0 | 10.0 | 0.00 | 0.00 | 0.00 | 83 | 1012.4 |
| 20260502034557 | 80 | 206 | 3.0 | 8.0 | 0.00 | 0.00 | 0.00 | 83 | 1012.2 |
| 20260502033059 | 80 | 215 | 5.0 | 10.0 | 0.00 | 0.00 | 0.00 | 82 | 1012.2 |
| 20260502031606 | 80 | 216 | 4.0 | 9.0 | 0.00 | 0.00 | 0.00 | 82 | 1012.2 |
| 20260502030106 | 80 | 215 | 2.0 | 8.0 | 0.00 | 0.00 | 0.00 | 82 | 1012.2 |
| 20260502024557 | 80 | 211 | 4.0 | 8.0 | 0.00 | 0.00 | 0.00 | 81 | 1012.1 |
| 20260502023100 | 80 | 186 | 3.0 | 7.0 | 0.00 | 0.00 | 0.00 | 81 | 1012.0 |
| 20260502021557 | 79 | 229 | 3.0 | 9.0 | 0.00 | 0.00 | 0.00 | 80 | 1011.8 |
| 20260502020056 | 79 | 233 | 4.0 | 8.0 | 0.00 | 0.00 | 0.00 | 81 | 1011.7 |
| 20260502014558 | 79 | 164 | 3.0 | 7.0 | 0.00 | 0.00 | 0.00 | 80 | 1011.6 |
| 20260502013058 | 79 | 242 | 2.0 | 5.0 | 0.00 | 0.00 | 0.00 | 79 | 1011.5 |
| 20260502011553 | 79 | 0 | 1.0 | 4.0 | 0.00 | 0.00 | 0.00 | 79 | 1011.4 |
| 20260502010058 | 79 | 213 | 1.0 | 5.0 | 0.00 | 0.00 | 0.00 | 79 | 1011.3 |
| 20260502004556 | 79 | 186 | 0.0 | 4.0 | 0.00 | 0.00 | 0.00 | 78 | 1011.0 |